HN153 YSSY-YMML

Flight info

Callsign HN153
Flight time N/A
Altitude 34000
Route SY3/25 WOL DCT CB DCT BOYSE DCT
Aircraft B38M/M-SDE1FGHILORVWXY/HB1

Departure

Time 2026-05-08 02:03
Airport Sydney Kingsford Smith International Airport (YSSY)

Arrival

Time N/A
Airport Melbourne Airport (YMML)
Time Latitude Longitude Altitude Speed Heading
2026-05-08 01:10 -33.93795 151.16952 22 ft 0 kts 255°
2026-05-08 01:29 -33.93794 151.16956 49 ft 3 kts 255°
2026-05-08 01:30 -33.93789 151.16978 22 ft 3 kts 255°
2026-05-08 01:30 -33.93785 151.17000 23 ft 3 kts 289°
2026-05-08 01:30 -33.93796 151.17016 26 ft 1 kts 347°
2026-05-08 01:30 -33.93798 151.17016 26 ft 0 kts 347°
2026-05-08 01:36 -33.93797 151.17016 26 ft 0 kts 347°
2026-05-08 01:36 -33.93796 151.17016 26 ft 0 kts 347°
2026-05-08 01:36 -33.93793 151.17015 23 ft 1 kts 347°
2026-05-08 01:37 -33.93773 151.17010 24 ft 4 kts 351°
2026-05-08 01:37 -33.93735 151.17016 22 ft 7 kts 30°
2026-05-08 01:37 -33.93711 151.17070 23 ft 8 kts 76°
2026-05-08 01:37 -33.93710 151.17101 24 ft 0 kts 95°
2026-05-08 01:38 -33.93710 151.17103 24 ft 1 kts 97°
2026-05-08 01:38 -33.93714 151.17118 23 ft 3 kts 105°
2026-05-08 01:38 -33.93728 151.17150 22 ft 7 kts 129°
2026-05-08 01:38 -33.93797 151.17184 16 ft 9 kts 167°
2026-05-08 01:39 -33.93803 151.17186 16 ft 0 kts 167°
2026-05-08 01:39 -33.93808 151.17187 16 ft 2 kts 167°
2026-05-08 01:40 -33.93833 151.17194 16 ft 5 kts 166°
2026-05-08 01:40 -33.93877 151.17207 17 ft 7 kts 165°
2026-05-08 01:40 -33.93928 151.17222 18 ft 8 kts 167°
2026-05-08 01:40 -33.93977 151.17233 20 ft 7 kts 176°
2026-05-08 01:41 -33.94014 151.17236 21 ft 4 kts 172°
2026-05-08 01:41 -33.94026 151.17239 22 ft 0 kts 172°
2026-05-08 01:42 -33.94027 151.17239 22 ft 0 kts 172°
2026-05-08 01:42 -33.94032 151.17240 22 ft 2 kts 172°
2026-05-08 01:42 -33.94055 151.17244 24 ft 5 kts 171°
2026-05-08 01:42 -33.94072 151.17248 25 ft 6 kts 168°
2026-05-08 01:43 -33.94152 151.17269 25 ft 17 kts 168°
2026-05-08 01:43 -33.94294 151.17308 26 ft 22 kts 168°
2026-05-08 01:43 -33.94372 151.17327 27 ft 0 kts 169°
2026-05-08 01:44 -33.94381 151.17329 27 ft 4 kts 169°
2026-05-08 01:44 -33.94397 151.17333 27 ft 3 kts 169°
2026-05-08 01:44 -33.94430 151.17342 27 ft 0 kts 166°
2026-05-08 01:48 -33.94435 151.17343 27 ft 3 kts 166°
2026-05-08 01:48 -33.94464 151.17352 27 ft 3 kts 166°
2026-05-08 01:48 -33.94505 151.17363 27 ft 9 kts 169°
2026-05-08 01:49 -33.94588 151.17384 27 ft 15 kts 168°
2026-05-08 01:49 -33.94684 151.17420 27 ft 13 kts 155°
2026-05-08 01:49 -33.94741 151.17479 28 ft 0 kts 118°
2026-05-08 01:50 -33.94741 151.17480 28 ft 1 kts 118°
2026-05-08 01:50 -33.94747 151.17498 29 ft 3 kts 108°
2026-05-08 01:50 -33.94750 151.17535 28 ft 6 kts 88°
2026-05-08 01:51 -33.94736 151.17586 25 ft 7 kts 60°
2026-05-08 01:51 -33.94693 151.17633 28 ft 10 kts 26°
2026-05-08 01:51 -33.94621 151.17653 26 ft 12 kts
2026-05-08 01:51 -33.94606 151.17656 27 ft 1 kts
2026-05-08 01:52 -33.94589 151.17659 24 ft 4 kts
2026-05-08 01:52 -33.94559 151.17668 27 ft 5 kts 17°
2026-05-08 01:52 -33.94521 151.17686 27 ft 7 kts 22°
2026-05-08 01:52 -33.94470 151.17708 27 ft 8 kts 17°
2026-05-08 01:53 -33.94435 151.17721 28 ft 1 kts 16°
2026-05-08 01:53 -33.94415 151.17726 26 ft 5 kts
2026-05-08 01:53 -33.94368 151.17729 26 ft 9 kts
2026-05-08 01:53 -33.94296 151.17724 22 ft 12 kts 349°
2026-05-08 01:54 -33.94213 151.17698 25 ft 13 kts 345°
2026-05-08 01:54 -33.94153 151.17678 25 ft 0 kts 344°
2026-05-08 01:55 -33.94151 151.17677 24 ft 1 kts 344°
2026-05-08 01:55 -33.94140 151.17673 23 ft 3 kts 344°
2026-05-08 01:55 -33.94108 151.17663 23 ft 7 kts 344°
2026-05-08 01:56 -33.94038 151.17645 22 ft 13 kts 352°
2026-05-08 01:56 -33.93938 151.17623 20 ft 16 kts 359°
2026-05-08 01:56 -33.93861 151.17700 20 ft 16 kts 72°
2026-05-08 01:56 -33.93834 151.17827 26 ft 15 kts 76°
2026-05-08 01:57 -33.93808 151.17932 28 ft 12 kts 74°
2026-05-08 01:57 -33.93786 151.18023 31 ft 11 kts 73°
2026-05-08 01:57 -33.93764 151.18114 32 ft 12 kts 73°
2026-05-08 01:57 -33.93743 151.18200 32 ft 9 kts 73°
2026-05-08 01:58 -33.93724 151.18277 32 ft 10 kts 73°
2026-05-08 01:58 -33.93702 151.18368 32 ft 12 kts 73°
2026-05-08 01:58 -33.93678 151.18471 32 ft 14 kts 74°
2026-05-08 01:58 -33.93652 151.18581 32 ft 13 kts 74°
2026-05-08 01:59 -33.93625 151.18696 32 ft 15 kts 74°
2026-05-08 01:59 -33.93599 151.18826 32 ft 16 kts 89°
2026-05-08 01:59 -33.93645 151.18939 31 ft 18 kts 143°
2026-05-08 01:59 -33.93698 151.18963 25 ft 0 kts 168°
2026-05-08 02:00 -33.93707 151.18964 29 ft 4 kts 175°
2026-05-08 02:00 -33.93746 151.18953 28 ft 8 kts 210°
2026-05-08 02:00 -33.93777 151.18890 27 ft 11 kts 253°
2026-05-08 02:00 -33.93783 151.18865 27 ft 0 kts 253°
2026-05-08 02:01 -33.93783 151.18864 27 ft 0 kts 253°
2026-05-08 02:02 -33.93785 151.18858 27 ft 1 kts 253°
2026-05-08 02:02 -33.93799 151.18800 29 ft 16 kts 253°
2026-05-08 02:02 -33.93870 151.18506 29 ft 65 kts 255°
2026-05-08 02:02 -33.94056 151.17711 28 ft 128 kts 256°
2026-05-08 02:03 -33.94374 151.16533 197 ft 161 kts 249°
2026-05-08 02:03 -33.94924 151.15306 759 ft 166 kts 238°
2026-05-08 02:03 -33.95616 151.14335 1875 ft 145 kts 220°
2026-05-08 02:03 -33.96556 151.13814 2250 ft 159 kts 203°
2026-05-08 02:04 -33.97656 151.13380 2425 ft 173 kts 204°
2026-05-08 02:04 -33.98819 151.12897 2637 ft 187 kts 204°
2026-05-08 02:04 -34.00101 151.12351 3185 ft 203 kts 202°
2026-05-08 02:04 -34.01473 151.11761 3782 ft 217 kts 202°
2026-05-08 02:05 -34.02946 151.11123 4371 ft 231 kts 201°
2026-05-08 02:05 -34.04477 151.10457 5115 ft 237 kts 201°
2026-05-08 02:05 -34.06040 151.09777 5952 ft 240 kts 200°
2026-05-08 02:05 -34.07674 151.09276 6708 ft 244 kts 194°
2026-05-08 02:06 -34.09335 151.08788 7459 ft 247 kts 199°
2026-05-08 02:06 -34.10941 151.08036 8246 ft 249 kts 207°
2026-05-08 02:06 -34.12470 151.07035 9003 ft 253 kts 212°
2026-05-08 02:06 -34.14022 151.05971 9729 ft 258 kts 211°
2026-05-08 02:07 -34.15629 151.04937 10393 ft 265 kts 210°
2026-05-08 02:07 -34.17299 151.03885 10836 ft 278 kts 210°
2026-05-08 02:07 -34.19055 151.02766 11214 ft 293 kts 210°
2026-05-08 02:07 -34.20863 151.01603 11724 ft 302 kts 210°
2026-05-08 02:08 -34.22736 151.00403 12391 ft 307 kts 210°
2026-05-08 02:08 -34.24631 150.99189 13119 ft 309 kts 210°
2026-05-08 02:08 -34.26536 150.97967 13883 ft 311 kts 211°
2026-05-08 02:08 -34.28453 150.96737 14563 ft 312 kts 210°
2026-05-08 02:09 -34.30375 150.95503 15236 ft 314 kts 210°
2026-05-08 02:09 -34.32312 150.94259 15901 ft 316 kts 210°
2026-05-08 02:09 -34.34260 150.93006 16549 ft 318 kts 210°
2026-05-08 02:09 -34.36219 150.91747 17218 ft 319 kts 210°
2026-05-08 02:10 -34.38185 150.90481 17898 ft 321 kts 210°
2026-05-08 02:10 -34.40154 150.89213 18524 ft 322 kts 210°
2026-05-08 02:10 -34.42142 150.87933 19083 ft 323 kts 210°
2026-05-08 02:10 -34.43463 150.87082 19448 ft 324 kts 210°
2026-05-08 02:11 -34.46138 150.85357 20191 ft 327 kts 210°
2026-05-08 02:11 -34.47464 150.84501 20546 ft 328 kts 210°
2026-05-08 02:11 -34.49484 150.83197 21090 ft 330 kts 210°
2026-05-08 02:11 -34.51511 150.81888 21603 ft 331 kts 210°
2026-05-08 02:12 -34.53552 150.80569 22115 ft 333 kts 210°
2026-05-08 02:12 -34.55441 150.78958 22613 ft 333 kts 224°
2026-05-08 02:12 -34.56911 150.76777 23111 ft 338 kts 235°
2026-05-08 02:12 -34.58071 150.74278 23544 ft 341 kts 238°
2026-05-08 02:13 -34.59212 150.71739 23916 ft 344 kts 237°
2026-05-08 02:13 -34.60388 150.69201 24259 ft 346 kts 237°
2026-05-08 02:13 -34.61582 150.66652 24624 ft 349 kts 237°
2026-05-08 02:13 -34.62773 150.64079 24997 ft 351 kts 237°
2026-05-08 02:14 -34.63967 150.61481 25388 ft 354 kts 237°
2026-05-08 02:14 -34.65170 150.58868 25747 ft 356 kts 237°
2026-05-08 02:14 -34.66387 150.56233 26134 ft 358 kts 237°
2026-05-08 02:14 -34.67610 150.53583 26505 ft 360 kts 237°
2026-05-08 02:15 -34.68822 150.50949 26872 ft 362 kts 237°
2026-05-08 02:15 -34.70053 150.48271 27208 ft 364 kts 237°
2026-05-08 02:15 -34.71289 150.45582 27523 ft 366 kts 238°
2026-05-08 02:15 -34.72537 150.42869 27873 ft 369 kts 238°
2026-05-08 02:16 -34.73791 150.40135 28218 ft 371 kts 238°
2026-05-08 02:16 -34.75051 150.37386 28548 ft 374 kts 238°
2026-05-08 02:16 -34.76318 150.34621 28866 ft 376 kts 238°
2026-05-08 02:16 -34.77599 150.31824 29207 ft 377 kts 238°
2026-05-08 02:17 -34.78869 150.29048 29695 ft 375 kts 238°
2026-05-08 02:17 -34.80135 150.26277 30186 ft 374 kts 237°
2026-05-08 02:17 -34.81392 150.23525 30571 ft 372 kts 237°
2026-05-08 02:17 -34.82647 150.20776 30932 ft 371 kts 238°
2026-05-08 02:18 -34.83896 150.18039 31301 ft 370 kts 238°
2026-05-08 02:18 -34.85143 150.15302 31594 ft 370 kts 238°
2026-05-08 02:18 -34.86392 150.12558 31903 ft 370 kts 238°
2026-05-08 02:18 -34.87639 150.09818 32207 ft 370 kts 239°
2026-05-08 02:19 -34.88892 150.07063 32521 ft 370 kts 239°
2026-05-08 02:19 -34.90138 150.04319 32843 ft 371 kts 239°
2026-05-08 02:19 -34.91369 150.01605 33128 ft 371 kts 239°
2026-05-08 02:19 -34.92635 149.98815 33442 ft 371 kts 239°
2026-05-08 02:20 -34.93881 149.96067 33791 ft 371 kts 238°
2026-05-08 02:20 -34.95131 149.93307 34053 ft 372 kts 238°
2026-05-08 02:20 -34.97662 149.87710 34112 ft 381 kts 239°
2026-05-08 02:21 -35.00212 149.82059 34154 ft 383 kts 239°
2026-05-08 02:21 -35.02783 149.76358 34147 ft 383 kts 239°
2026-05-08 02:22 -35.05351 149.70650 34159 ft 384 kts 239°